Flag for Cameroon Weather past 2 weeks in Douala, Cameroon

Now
77 °F

Drizzle. Mostly cloudy.


Feels Like: 78 °F
Forecast: 75 / 78 °F
Wind: 5 mph from South

Location: Douala Obs.

Current Time: Jun 30, 2015 at 11:11:37 AM

Latest Report: Jun 30, 2015 at 11:00 AM


Visibility: 4 mi

Pressure: 30.01 "Hg

Humidity: 89%

Dew point: 73 °F

Location of DoualaLocation

Historic Weather in Douala — Graph

°F

Douala temperature yesterday

Maximum temperature yesterday: 82 °F (at 12:00 PM)
Minimum temperature yesterday: 75 °F (at 2:00 AM)
Average temperature yesterday: 78 °F

Past Weeks' High & Low Weather Summary

 TemperatureHumidityPressure
High86 °F (Jun 15, 12:00 PM)100% (Jun 15, 10:00 PM)30.09 "Hg (Jun 15, 10:00 PM)
Low75 °F (Jun 20, 6:00 AM)70% (Jun 15, 12:00 PM)29.80 "Hg (Jun 17, 4:00 PM)
Average78 °F90%29.95 "Hg
* Reported Jun 15 10:00 AM — Jun 30 10:00 AM, Douala, Weather by CustomWeather, © 2015

Note: Actual official high and low records may vary slightly from our data, if they occured in-between our weather recording intervals... More about our weather records

Advertising

Douala weather history for previous 24 hours

 ConditionsComfort  
Time TempWeatherWind HumidityBarometerVisibility
10:00 AM
Tue, Jun 30
77 °FMostly cloudy.No wind89%30.01 "Hg4 mi
9:00 AM75 °FDrizzle. Fog.No wind94%30.01 "Hg1 mi
8:00 AM75 °FDrizzle. Fog.No wind94%30.01 "Hg1 mi
7:00 AM75 °FDrizzle. Fog.No wind94%29.98 "Hg1 mi
6:00 AM75 °FPartly cloudy.No wind94%29.95 "Hg4 mi
5:00 AM75 °FPassing clouds.No wind94%29.92 "HgN/A
4:00 AM75 °FPassing clouds.No wind94%29.92 "HgN/A
3:00 AM75 °FPassing clouds.No wind94%29.95 "HgN/A
2:00 AM75 °FPassing clouds.No wind94%29.95 "HgN/A
1:00 AM75 °FPassing clouds.No wind94%29.98 "HgN/A
12:00 AM77 °FPassing clouds.No wind89%29.98 "HgN/A
11:00 PM
Mon, Jun 29
77 °FPassing clouds.No wind89%29.98 "HgN/A
10:00 PM77 °FPassing clouds.No wind94%29.98 "HgN/A
9:00 PM79 °FPassing clouds.7 mph79%29.98 "HgN/A
8:00 PM79 °FPassing clouds.7 mph79%29.95 "HgN/A
7:00 PM79 °FPassing clouds.5 mph79%29.95 "HgN/A
6:00 PM79 °FMostly cloudy.7 mph89%29.92 "HgN/A
5:00 PM81 °FMostly cloudy.7 mph89%29.92 "HgN/A
4:00 PM81 °FMostly cloudy.12 mph79%29.92 "HgN/A
3:00 PM81 °FMostly cloudy.12 mph79%29.95 "HgN/A
2:00 PM82 °FPartly sunny.7 mph70%29.98 "HgN/A
1:00 PM81 °FPartly sunny.5 mph79%30.01 "HgN/A
12:00 PM82 °FPartly sunny.7 mph70%30.01 "HgN/A
11:00 AM81 °FPartly sunny.2 mph79%30.04 "HgN/A
Weather by CustomWeather, © 2015

See weather overviewHow to use our weather pages